2023/10/11 00:00:00, 0.2,16.4
2023/10/11 00:10:00, 0.2,16.4
2023/10/11 00:20:00, 0.2,16.4
2023/10/11 00:30:00, 0.1,16.3
2023/10/11 00:40:00, 0.1,16.5
2023/10/11 00:50:00, 0.2,16.8
2023/10/11 01:00:00, 0.2,16.6
2023/10/11 01:10:00, 0.1,16.4
2023/10/11 01:20:00, 0.2,16.7
2023/10/11 01:30:00, 0.2,16.5
2023/10/11 01:40:00, 0.2,16.1
2023/10/11 01:50:00, 0.1,15.9
2023/10/11 02:00:00, 0.1,15.2
2023/10/11 02:10:00, 0.1,14.8
2023/10/11 02:20:00, 0.1,14.1
2023/10/11 02:30:00, 0.1,13.9
2023/10/11 02:40:00, 0.1,13.5
2023/10/11 02:50:00, 0.1,13.7
2023/10/11 03:00:00, 0.1,13.4
2023/10/11 03:10:00, 0.2,13.2
2023/10/11 03:20:00, 0.3,13.1
2023/10/11 03:30:00, 0.3,13.1
2023/10/11 03:40:00, 0.4,13.1
2023/10/11 03:50:00, 0.5,13.0
2023/10/11 04:00:00, 0.6,12.8
2023/10/11 04:10:00, 0.6,12.8
2023/10/11 04:20:00, 0.6,12.8
2023/10/11 04:30:00, 0.8,13.2
2023/10/11 04:40:00, 0.9,13.0
2023/10/11 04:50:00, 0.9,12.7
2023/10/11 05:00:00, 1.0,12.6
2023/10/11 05:10:00, 1.0,12.7
2023/10/11 05:20:00, 1.1,12.8
2023/10/11 05:30:00, 1.2,12.9
2023/10/11 05:40:00, 1.2,12.9
2023/10/11 05:50:00, 1.3,12.7
2023/10/11 06:00:00, 1.2,12.6
2023/10/11 06:10:00, 1.2,12.8
2023/10/11 06:20:00, 1.3,13.1
2023/10/11 06:30:00, 1.4,12.7
2023/10/11 06:40:00, 1.3,13.1
2023/10/11 06:50:00, 1.3,13.2
2023/10/11 07:00:00, 1.0,13.2
2023/10/11 07:10:00, 0.6,13.7
2023/10/11 07:20:00, 0.6,13.8
2023/10/11 07:30:00, 0.4,14.1
2023/10/11 07:40:00, 0.4,14.5
2023/10/11 07:50:00, 0.3,15.3
2023/10/11 08:00:00, 0.4,15.5
2023/10/11 08:10:00, 0.3,16.2
2023/10/11 08:20:00, 0.4,16.8
2023/10/11 08:30:00, 0.4,16.8
2023/10/11 08:40:00, 0.5,17.4
2023/10/11 08:50:00, 0.5,17.2
2023/10/11 09:00:00, 0.5,19.6
2023/10/11 09:10:00, 0.3,19.2
2023/10/11 09:20:00, 0.2,20.0
2023/10/11 09:30:00, 0.2,20.2
2023/10/11 09:40:00, 0.3,21.9
2023/10/11 09:50:00, 0.2,21.4
2023/10/11 10:00:00, 0.2,20.8
2023/10/11 10:10:00, 0.3,20.8
2023/10/11 10:20:00, 0.5,21.4
2023/10/11 10:30:00, 0.7,22.6
2023/10/11 10:40:00, 0.3,20.8
2023/10/11 10:50:00, 0.4,21.6
2023/10/11 11:00:00, 0.5,22.8
2023/10/11 11:10:00, 1.2,20.8
2023/10/11 11:20:00, 1.7,20.3
2023/10/11 11:30:00, 1.9,20.9
2023/10/11 11:40:00, 2.1,21.6
2023/10/11 11:50:00, 2.1,22.4
2023/10/11 12:00:00, 2.2,22.7
2023/10/11 12:10:00, 2.1,21.5
2023/10/11 12:20:00, 2.0,22.3
2023/10/11 12:30:00, 1.9,21.2
2023/10/11 12:40:00, 1.8,20.2
2023/10/11 12:50:00, 2.0,20.4
2023/10/11 13:00:00, 1.8,20.8
2023/10/11 13:10:00, 1.8,22.3
2023/10/11 13:20:00, 2.0,21.3
2023/10/11 13:30:00, 1.9,21.3
2023/10/11 13:40:00, 1.7,23.8
2023/10/11 13:50:00, 1.7,23.2
2023/10/11 14:00:00, 1.7,24.1
2023/10/11 14:10:00, 1.5,21.6
2023/10/11 14:20:00, 1.5,21.8
2023/10/11 14:30:00, 1.4,20.8
2023/10/11 14:40:00, 1.4,22.4
2023/10/11 14:50:00, 1.3,23.6
2023/10/11 15:00:00, 1.3,25.2
2023/10/11 15:10:00, 1.4,24.5
2023/10/11 15:20:00, 1.5,23.1
2023/10/11 15:30:00, 1.5,20.5
2023/10/11 15:40:00, 1.3,20.4
2023/10/11 15:50:00, 1.4,20.7
2023/10/11 16:00:00, 1.4,24.0
2023/10/11 16:10:00, 1.4,24.0
2023/10/11 16:20:00, 1.4,21.7
2023/10/11 16:30:00, 1.4,24.0
2023/10/11 16:40:00, 1.5,21.4
2023/10/11 16:50:00, 1.5,18.7
2023/10/11 17:00:00, 1.5,18.0
2023/10/11 17:10:00, 1.5,17.1
2023/10/11 17:20:00, 1.5,16.6
2023/10/11 17:30:00, 1.5,15.9
2023/10/11 17:40:00, 1.4,15.3
2023/10/11 17:50:00, 1.3,14.9
2023/10/11 18:00:00, 1.2,14.6
2023/10/11 18:10:00, 1.2,14.3
2023/10/11 18:20:00, 1.1,14.5
2023/10/11 18:30:00, 1.1,14.3
2023/10/11 18:40:00, 1.1,14.1
2023/10/11 18:50:00, 1.0,13.9
2023/10/11 19:00:00, 1.0,14.0
2023/10/11 19:10:00, 0.9,13.7
2023/10/11 19:20:00, 0.9,13.9
2023/10/11 19:30:00, 1.0,13.5
2023/10/11 19:40:00, 1.0,13.7
2023/10/11 19:50:00, 1.0,13.4
2023/10/11 20:00:00, 1.1,13.2
2023/10/11 20:10:00, 1.1,12.9
2023/10/11 20:20:00, 1.2,13.0
2023/10/11 20:30:00, 1.3,12.7
2023/10/11 20:40:00, 1.4,13.1
2023/10/11 20:50:00, 1.5,13.2
2023/10/11 21:00:00, 1.6,13.0
2023/10/11 21:10:00, 1.7,12.9
2023/10/11 21:20:00, 1.7,12.7
2023/10/11 21:30:00, 1.9,12.8
2023/10/11 21:40:00, 2.0,11.9
2023/10/11 21:50:00, 2.3,12.4
2023/10/11 22:00:00, 2.4,12.4
2023/10/11 22:10:00, 2.4,12.7
2023/10/11 22:20:00, 2.5,12.5
2023/10/11 22:30:00, 2.6,12.2
2023/10/11 22:40:00, 2.6,12.0
2023/10/11 22:50:00, 2.7,12.0
2023/10/11 23:00:00, 2.7,11.7
2023/10/11 23:10:00, 2.7,11.8
2023/10/11 23:20:00, 2.7,11.7
2023/10/11 23:30:00, 2.7,11.9
2023/10/11 23:40:00, 2.6,12.0
2023/10/11 23:50:00, 2.1,12.0
